UKUBE-1

Last updated on Wed Sep 17 2025 00:03:49 GMT+0000 (Coordinated Universal Time)

1 40074U 14037F 25259.48802639 .00009626 00000+0 64647-3 0 9995 2 40074 98.4029 230.5969 0002878 57.5116 302.6387 15.07043217607230
UTC large
Height (km)
Speed (km/s)
/
Latitude / Longitude
Inclination (degrees)
Orbital Period (minutes)
Azimuth
Elevation
Range (km)
Doppler Factor

Next 0 passes for location: London (51.5072 / 0.1276)

Sorry there are no passes over London.